Regional Weather Roundup
Issued by NWS

Home | Current Version | Previous Version | Graphics & Text | Print | Product List | Glossary On
Versions: 1 2 3 4 5 6 7 8 9 10 11 12 13 14 15 16 17 18 19 20 21 22 23 24 25 26 27 28 29 30 31 32 33 34 35 36 37 38 39 40 41 42 43 44 45 46 47 48 49
140
ASUS45 KPSR 070910
RWRAZ

ARIZONA HOURLY REGIONAL WEATHER ROUNDUP
NATIONAL WEATHER SERVICE PHOENIX AZ
200 AM MST SUN FEB 07 2016

NOTE: FAIR INDICATES FEW OR NO CLOUDS BELOW 12,000 FEET WITH NO
SIGNIFICANT WEATHER AND/OR OBSTRUCTIONS TO VISIBILITY.

AZZ001>003-036-071000-
NORTHWEST ARIZONA

CITY           SKY/WX    TMP DP  RH WIND       PRES   REMARKS
BULLHEAD CITY  CLEAR     59  25  27 NE20      30.28R
KINGMAN        CLEAR     33  23  66 E7        30.33R WCI  27
$$

AZZ004>008-015-016-018-071000-
NORTH CENTRAL ARIZONA

CITY           SKY/WX    TMP DP  RH WIND       PRES   REMARKS
GRAND CANYON   CLEAR     20  12  71 CALM      30.40F
WILLIAMS       CLEAR     27   9  46 SE10      30.43S WCI  17
PRESCOTT       CLEAR     32  19  58 SW6       30.35F WCI  26
FLAGSTAFF      CLEAR     16  12  84 CALM      30.40F
PAYSON         CLEAR     37  10  32 N3        30.34R
PAGE           CLEAR     29  22  75 CALM      30.46R
$$

AZZ009>014-017-071000-
NORTHEAST ARIZONA

CITY           SKY/WX    TMP DP  RH WIND       PRES   REMARKS
WINSLOW        CLEAR     24  15  68 SW5       30.42F WCI  18
SAINT JOHNS    CLEAR     22  15  75 CALM      30.40R
WINDOW ROCK    CLEAR     19   0  43 CALM      30.41F
SHOW LOW       CLEAR     25  12  58 CALM      30.41S
$$

AZZ023-071000-
GREATER PHOENIX AREA

CITY           SKY/WX    TMP DP  RH WIND       PRES   REMARKS
PHOENIX        CLEAR     51  27  39 SW6       30.19R
BUCKEYE        CLEAR     50  21  32 N7        30.22S
LUKE AFB       CLEAR     46  26  46 N6        30.19S
DEER VALLEY    CLEAR     50  23  34 NE6       30.19F
SCOTTSDALE     CLEAR     46  28  49 CALM      30.21S
MESA-GATEWAY   CLEAR     43  28  56 CALM      30.20S
$$

AZZ027-028-071000-
SOUTHWEST MARICOPA COUNTY AND PINAL COUNTY

CITY           SKY/WX    TMP DP  RH WIND       PRES   REMARKS
CASA GRANDE    CLEAR     52  14  22 NE7       30.19F
GILA BEND      FAIR      44  22  41 E5        30.19R
$$

AZZ503-504-507>509-071000-
SOUTHEAST ARIZONA

CITY           SKY/WX    TMP DP  RH WIND       PRES   REMARKS
TUCSON         PTCLDY    48  11  22 NE5       30.21F
DAVIS-MONTHAN  PTCLDY    51   9  18 SE12      30.19F
NOGALES        CLEAR     38   9  30 S5        30.22F WCI  34
SIERRA VISTA   PTCLDY    35  15  43 SW2       30.28F
DOUGLAS        PTCLDY    30   7  37 CALM      30.28F
SAFFORD        CLEAR     38  15  39 SE6       30.28S WCI  33
$$

AZZ020-021-025-026-031-071000-
SOUTHWEST ARIZONA

CITY           SKY/WX    TMP DP  RH WIND       PRES   REMARKS
YUMA           CLEAR     59  22  24 N13       30.18F
$$

CAZ031-033-041-043-047-048-061-071000-
SOUTHERN CALIFORNIA

CITY           SKY/WX    TMP DP  RH WIND       PRES   REMARKS
DOWNTOWN L.A.  CLEAR     59  27  29 CALM      30.15F
L.A. AIRPORT   CLEAR     59  28  30 E3        30.16S
SAN DIEGO      CLEAR     57  30  35 N6        30.15F
BURBANK        CLEAR     51  28  41 N3        30.16F
ONTARIO        CLEAR     51  27  39 N5        30.18S
RIVERSIDE      CLEAR     58  20  22 E7        30.19S
PALM SPRINGS   CLEAR     55  27  34 NW5       30.25S
EL CENTRO NAS  CLEAR     45  19  35 W8        30.22S
IMPERIAL       CLEAR     49  23  36 W7        30.20S
BLYTHE         CLEAR     52  23  32 CALM      30.23F
NEEDLES        CLEAR     55  24  30 N9        30.27S
$$

NVZ020-UTZ003-071000-
SOUTHERN NEVADA-UTAH

CITY           SKY/WX    TMP DP  RH WIND       PRES   REMARKS
LAS VEGAS      CLEAR     48  26  42 NW6       30.32R
SALT LAKE CITY MOCLDY    27  20  75 SE5       30.49F WCI  22
$$

NMZ009-TXZ055-071000-
NEW MEXICO-WEST TEXAS

CITY           SKY/WX    TMP DP  RH WIND       PRES   REMARKS
ALBUQUERQUE    CLOUDY    36  14  40 N10       30.36F WCI  28
EL PASO        MOCLDY    31   7  36 E3        30.30F
$$


........................KEY........................
SKY/WX - SKY CONDITION/WEATHER
TMP    - TEMPERATURE IN FAHRENHEIT
DP     - DEW POINT IN FAHRENHEIT
RH     - RELATIVE HUMIDITY IN PERCENT
WIND   - DIRECTION AND SPEED IN MILES PER HOUR (MPH)
VRB    - VARIABLE WIND DIRECTION
PRES   - MEAN SEA LEVEL PRESSURE IN INCHES OF MERCURY
         F - FALLING PRESSURE   R - RISING PRESSURE
         S - STEADY PRESSURE
VSB    - VISIBILITY IN MILES
HX     - HEAT INDEX IN FAHRENHEIT
WCI    - WIND CHILL INDEX IN FAHRENHEIT
TC     - TEMPERATURE IN CELSIUS WHICH IS ALSO KNOWN AS
         TEMPERATURE IN CENTIGRADE
AFB    - AIR FORCE BASE
         LUKE AFB IS LUKE AIR FORCE BASE
         DAVIS-MONTHAN IS DAVIS-MONTHAN AIR FORCE BASE
NAS    - NAVAL AIR STATION
         EL CENTRO NAS IS EL CENTRO NAVAL AIR STATION
N/A    - NOT AVAILABLE





USA.gov is the U.S. government's official web portal to all federal, state and local government web resources and services.